Terminal Aerodrome Forecast
Issued by NWS

Home | Current Version | Previous Version | Text Only | Print | Product List | Glossary On
Versions: 1 2 3 4 5 6 7 8 9 10 11 12 13 14 15 16 17 18 19 20 21 22 23 24 25 26 27 28 29 30 31 32 33 34
000
FTUS43 KPAH 051725
TAFOWB
TAF
KOWB 051725Z 0518/0618 08006KT P6SM OVC014
     FM060500 05005KT 4SM -RA BR OVC006
     FM060700 02005KT 2SM -RA BR OVC005
     FM061500 33008KT 4SM -RA BR OVC009
     FM061700 31010G16KT P6SM OVC015=

USA.gov is the U.S. government's official web portal to all federal, state and local government web resources and services.